Regional Weather Roundup
Issued by NWS Burlington, VT

Home | Current Version | Previous Version | Text Only | Print | Product List | Glossary On
Versions: 1 2 3 4 5 6 7 8 9 10 11 12 13 14 15 16 17 18 19 20 21 22 23 24 25 26 27 28 29 30 31 32 33 34 35 36 37 38 39 40 41 42 43 44 45 46 47 48 49 50
000
ASUS41 KBTV 230510
RWRBTV
VERMONT REGIONAL WEATHER ROUNDUP
NATIONAL WEATHER SERVICE BURLINGTON VT
100 AM EDT MON OCT 23 2017

NOTE: "FAIR" INDICATES FEW OR NO CLOUDS BELOW 12,000 FEET WITH NO
SIGNIFICANT WEATHER AND/OR OBSTRUCTIONS TO VISIBILITY.

* THESE REPORTS ARE NOT UNDER NWS QUALITY CONTROL AND/OR DO NOT
  REPORT WEATHER SUCH AS PRECIPITATION AND FOG.

VTZ001>019-230600-
_____VERMONT_____


CITY           SKY/WX    TMP DP  RH WIND       PRES   REMARKS
BURLINGTON     CLEAR     65  42  43 S14G21    30.26F
MORRISVILLE    CLEAR     45  44  97 S6        30.31F
ST. JOHNSBURY*   N/A     47  46  97 MISG      30.34S
LYNDONVILLE*   FAIR      54  48  80 SE8       30.37S
MIDDLEBURY*    FAIR      58  44  59 S5        30.30F
RUTLAND*       CLEAR     57  44  62 SE10      30.34S
SPRINGFIELD    CLOUDY    43  43 100 NE3       30.39R
HIGHGATE*      FAIR      67  43  41 S10G18    30.25S
NEWPORT*       FAIR      57  48  73 S8        30.32S
BENNINGTON     PTCLDY    50  40  68 CALM      30.34F

_____LAKE CHAMPLAIN_____


CITY           SKY/WX    TMP DP  RH WIND       PRES   REMARKS
BURTON ISLAND*   N/A     66  48  52 S18         N/A
COLCHESTER RF*   N/A     63  52  67 S20         N/A
DIAMOND ISL*     N/A     63  48  59 S12         N/A

$$

NYZ007-026>031-035-052-083-087-230600-
_____NORTHERN NEW YORK_____


CITY           SKY/WX    TMP DP  RH WIND       PRES   REMARKS
PLATTSBURGH    CLEAR     47  44  90 CALM      30.24F
SARANAC LAKE   CLOUDY    37  37 100 CALM      30.25F
MASSENA        CLEAR     47  46  97 CALM      30.21F
OGDENSBURG*    FAIR      59  46  62 S5        30.19S
POTSDAM*       CLEAR     63  45  51 SW5       30.20F
WATERTOWN      CLEAR     64  45  49 S9        30.19S
ALBANY         PTCLDY    57  43  59 CALM      30.33F
GLENS FALLS    CLEAR     42  41  96 CALM      30.32F

$$
NHZ002-005-011-230600-
_____NEW HAMPSHIRE_____


CITY           SKY/WX    TMP DP  RH WIND       PRES   REMARKS
LEBANON        CLEAR     46  45  96 S3        30.36S FOG
KEENE          CLEAR     43  37  81 CALM      30.39F FOG
MT WASHINGTON  PTCLDY    46  27  46 SW40G49     N/A
PLYMOUTH       CLOUDY    51  50  96 CALM      30.41S
WHITEFIELD     CLOUDY    39  38  96 CALM      30.36F

$$

_____REGIONAL QUEBEC LOCATIONS_____


CITY           SKY/WX    TMP DP  RH WIND       PRES   REMARKS
MONTREAL       PTCLDY    50  46  87 N5        30.22F
QUEBEC CITY    PTCLDY    43  39  87 NE8       30.30F
SHERBROOKE     CLEAR     50  45  81 E3        30.29F

_____REGIONAL ONTARIO LOCATIONS_____


CITY           SKY/WX    TMP DP  RH WIND       PRES   REMARKS
OTTAWA         PTCLDY    52  48  87 NE7       30.18S

______KEY______
VSB  - VISIBILITY IN MILES
WCI  - WIND CHILL INDEX
HX   - HEAT INDEX
$$
NNNN




USA.gov is the U.S. government's official web portal to all federal, state and local government web resources and services.